KF5CFW Weather Reports


Display with metric or nautical units.
time (UTC)temp
F
wind
direction
speed
MPH
gust
MPH
rain 1hr
in
rain 24hr
in
rain mn
in
humidity
%
barometer
mb
20260905064512 84 266 0.0 1.0 0.00 0.00 0.00 56 1011.8
20260905063010 85 160 0.0 1.0 0.00 0.00 0.00 57 1011.8
20260905061508 85 165 0.0 1.0 0.00 0.00 0.00 58 1011.9
20260905060007 85 148 0.0 1.0 0.00 0.00 0.00 58 1011.9
20260905054505 86 153 0.0 1.0 0.00 0.00 0.00 58 1011.7
20260905053002 86 154 0.0 1.0 0.00 0.00 0.00 58 1011.6
20260905051501 87 165 0.0 1.0 0.00 0.00 0.00 58 1011.5
20260905050059 87 238 0.0 1.0 0.00 0.00 0.00 58 1011.4
20260905044555 87 142 0.0 1.0 0.00 0.00 0.00 57 1011.4
20260905043049 88 127 0.0 1.0 0.00 0.00 0.00 57 1011.5
20260905041545 88 153 0.0 1.0 0.00 0.00 0.00 57 1011.3
20260905040043 89 151 0.0 1.0 0.00 0.00 0.00 56 1011.5
20260905034545 89 166 0.0 2.0 0.00 0.00 0.00 55 1011.5
20260905033032 89 151 0.0 1.0 0.00 0.00 0.00 55 1011.5
20260905031533 90 159 0.0 1.0 0.00 0.00 0.00 54 1011.3
20260905030030 90 152 0.0 1.0 0.00 0.00 0.00 53 1011.3
20260905024519 91 136 0.0 1.0 0.00 0.00 0.00 51 1011.0
20260905023026 91 156 0.0 1.0 0.00 0.00 0.00 49 1010.8
20260905021512 91 134 0.0 1.0 0.00 0.00 0.00 48 1010.5
20260905020006 92 132 0.0 1.0 0.00 0.00 0.00 47 1010.3
20260905014501 92 151 0.0 0.0 0.00 0.00 0.00 46 1010.1
20260905013056 93 154 0.0 1.0 0.00 0.00 0.00 45 1009.9
20260905011557 93 166 0.0 1.0 0.00 0.00 0.00 45 1009.7
20260905010047 94 155 0.0 1.0 0.00 0.00 0.00 44 1009.7
20260905004550 94 160 0.0 1.0 0.00 0.00 0.00 44 1009.3
20260905003038 95 154 0.0 1.0 0.00 0.00 0.00 44 1009.1
20260905001533 95 148 0.0 1.0 0.00 0.00 0.00 44 1009.1
20260905000030 96 159 0.0 2.0 0.00 0.00 0.00 43 1009.0
20260904234537 97 165 0.0 1.0 0.00 0.00 0.00 41 1009.0
20260904233021 99 159 0.0 1.0 0.00 0.00 0.00 40 1008.9
20260904231518 100 97 0.0 1.0 0.00 0.00 0.00 38 1008.9
20260904230013 101 130 0.0 1.0 0.00 0.00 0.00 37 1009.0
20260904224508 103 153 0.0 1.0 0.00 0.00 0.00 35 1009.0
20260904223004 103 158 0.0 1.0 0.00 0.00 0.00 35 1009.2
20260904221607 102 163 0.0 1.0 0.00 0.00 0.00 34 1009.3
20260904220057 102 150 0.0 2.0 0.00 0.00 0.00 35 1009.4
20260904214551 102 146 0.0 1.0 0.00 0.00 0.00 36 1009.4
20260904213046 103 326 0.0 1.0 0.00 0.00 0.00 35 1009.6
20260904211541 104 79 0.0 1.0 0.00 0.00 0.00 35 1009.7
20260904210042 104 213 0.0 1.0 0.00 0.00 0.00 35 1009.9
20260904204532 103 159 0.0 2.0 0.00 0.00 0.00 36 1010.1
20260904203032 102 48 0.0 3.0 0.00 0.00 0.00 37 1010.2
20260904201524 103 129 0.0 3.0 0.00 0.00 0.00 36 1010.4
20260904200027 104 158 0.0 2.0 0.00 0.00 0.00 35 1010.7
20260904194516 102 148 0.0 2.0 0.00 0.00 0.00 37 1011.0
20260904193014 101 194 0.0 2.0 0.00 0.00 0.00 39 1011.2
20260904191506 99 231 0.0 2.0 0.00 0.00 0.00 40 1011.4
20260904190002 99 160 0.0 3.0 0.00 0.00 0.00 42 1011.5
20260904184605 99 82 0.0 1.0 0.00 0.00 0.00 44 1011.7
20260904183053 98 104 0.0 2.0 0.00 0.00 0.00 43 1011.9
20260904181549 99 153 0.0 1.0 0.00 0.00 0.00 45 1012.1
20260904180058 97 238 0.0 2.0 0.00 0.00 0.00 47 1012.3
20260904174541 95 214 0.0 2.0 0.00 0.00 0.00 49 1012.5
20260904173039 94 153 0.0 1.0 0.00 0.00 0.00 50 1012.7
20260904171529 94 160 0.0 1.0 0.00 0.00 0.00 48 1012.9
20260904170027 94 214 0.0 1.0 0.00 0.00 0.00 48 1013.1
20260904164522 94 251 0.0 1.0 0.00 0.00 0.00 48 1013.2
20260904163019 93 127 0.0 2.0 0.00 0.00 0.00 51 1013.2
20260904161512 92 118 0.0 4.0 0.00 0.00 0.00 56 1013.1
20260904160008 90 207 0.0 1.0 0.00 0.00 0.00 57 1013.2
20260904154503 90 193 0.0 1.0 0.00 0.00 0.00 57 1013.3
20260904153106 89 153 0.0 2.0 0.00 0.00 0.00 57 1013.2
20260904151555 87 210 0.0 2.0 0.00 0.00 0.00 55 1013.1
20260904150051 86 314 0.0 1.0 0.00 0.00 0.00 43 1013.2
20260904144546 85 228 0.0 1.0 0.00 0.00 0.00 20 1013.3
20260904143042 83 158 0.0 1.0 0.00 0.00 0.00 3 1013.2
20260904141553 82 153 0.0 1.0 0.00 0.00 0.00 1 1013.3
20260904140033 81 152 0.0 1.0 0.00 0.00 0.00 1 1013.3
20260904134528 81 155 0.0 0.0 0.00 0.00 0.00 1 1013.1
20260904133025 80 155 0.0 0.0 0.00 0.00 0.00 1 1013.0
20260904131519 80 159 0.0 1.0 0.00 0.00 0.00 1 1012.9
20260904130015 80 136 0.0 0.0 0.00 0.00 0.00 1 1012.7
20260904124510 80 136 0.0 0.0 0.00 0.00 0.00 1 1012.6
20260904123005 79 135 0.0 0.0 0.00 0.00 0.00 1 1012.4
20260904121500 79 134 0.0 0.0 0.00 0.00 0.00 1 1012.3
20260904120100 79 136 0.0 0.0 0.00 0.00 0.00 1 1012.2
20260904114553 79 136 0.0 1.0 0.00 0.00 0.00 1 1012.0
20260904113052 79 136 0.0 0.0 0.00 0.00 0.00 1 1012.0
20260904111554 79 136 0.0 0.0 0.00 0.00 0.00 1 1012.1
20260904110045 79 136 0.0 0.0 0.00 0.00 0.00 1 1011.9
20260904104539 79 136 0.0 1.0 0.00 0.00 0.00 1 1011.8
20260904103037 79 136 0.0 0.0 0.00 0.00 0.00 1 1011.7
20260904101529 79 137 0.0 0.0 0.00 0.00 0.00 1 1011.6
20260904100025 79 69 0.0 0.0 0.00 0.00 0.00 1 1011.7
20260904094520 79 68 0.0 1.0 0.00 0.00 0.00 1 1011.7
20260904093016 79 122 0.0 0.0 0.00 0.00 0.00 1 1011.5
20260904091512 79 118 0.0 0.0 0.00 0.00 0.00 1 1011.6
20260904090008 79 129 0.0 0.0 0.00 0.00 0.00 1 1011.6
20260904084504 79 130 0.0 1.0 0.00 0.00 0.00 1 1011.6
20260904083101 79 163 0.0 1.0 0.00 0.00 0.00 1 1011.4
20260904081555 79 152 0.0 0.0 0.00 0.00 0.00 1 1011.4
20260904080050 79 165 0.0 0.0 0.00 0.00 0.00 1 1011.3
20260904074557 79 166 0.0 1.0 0.00 0.00 0.00 1 1011.4
20260904073043 80 167 0.0 1.0 0.00 0.00 0.00 1 1011.4
20260904071537 80 130 0.0 1.0 0.00 0.00 0.00 1 1011.7
20260904070033 80 148 0.0 1.0 0.00 0.00 0.00 5 1011.7